Flag for Tunisia Weather past 2 weeks in Tunis, Tunisia

Now
77 °F

Passing clouds.


Feels Like: 79 °F
Forecast: 71 / 91 °F
Wind: No wind

Location: Tunis-Carthage

Current Time: Sep 23, 2014 at 11:36:35 PM

Latest Report: Sep 23, 2014 at 11:00 PM


Visibility: N/A

Pressure: 30.04 "Hg

Humidity: 74%

Dew point: 68 °F

Location of TunisLocation

Historic Weather in Tunis — Graph

°F

Tunis temperature yesterday

Maximum temperature yesterday: 95 °F (at 12:30 PM)
Minimum temperature yesterday: 75 °F (at 5:30 AM)
Average temperature yesterday: 84 °F

Past Weeks' High & Low Weather Summary

 TemperatureHumidityPressure
High102 °F (Sep 21, 12:30 PM)94% (Sep 11, 11:30 PM)30.09 "Hg (Sep 11, 11:30 PM)
Low66 °F (Sep 12, 5:30 AM)18% (Sep 21, 1:30 PM)29.80 "Hg (Sep 18, 3:30 AM)
Average83 °F66%29.94 "Hg
* Reported Sep 8 10:00 PM — Sep 23 10:30 PM, Tunis, Weather by CustomWeather, © 2014

Note: Actual official high and low records may vary slightly from our data, if they occured in-between our weather recording intervals... More about our weather records

Advertising

Tunis weather history for previous 24 hours

 ConditionsComfort  
Time TempWeatherWind HumidityBarometerVisibility
10:30 PM
Sep 23
77 °FPassing clouds.3 mph74%30.01 "HgN/A
10:00 PM77 °FPassing clouds.3 mph74%30.01 "HgN/A
9:30 PM79 °FPassing clouds.No wind70%30.01 "HgN/A
9:00 PM79 °FPassing clouds.No wind70%30.01 "HgN/A
8:30 PM79 °FPassing clouds.No wind70%29.98 "HgN/A
8:00 PM79 °FPassing clouds.3 mph65%29.98 "HgN/A
7:30 PM79 °FPassing clouds.3 mph65%29.98 "HgN/A
7:00 PM79 °FPassing clouds.12 mph65%29.92 "HgN/A
6:30 PM81 °FPassing clouds.13 mph62%29.92 "HgN/A
6:00 PM81 °FScattered clouds.16 mph66%29.92 "HgN/A
5:30 PM84 °FScattered clouds.15 mph51%29.92 "HgN/A
5:00 PM84 °FScattered clouds.14 mph48%29.92 "HgN/A
4:30 PM86 °FScattered clouds.15 mph49%29.92 "HgN/A
4:00 PM86 °FScattered clouds.14 mph46%29.89 "HgN/A
3:30 PM86 °FScattered clouds.15 mph46%29.92 "HgN/A
3:00 PM88 °FScattered clouds.17 mph43%29.89 "HgN/A
2:30 PM88 °FPartly sunny.16 mph40%29.89 "HgN/A
2:00 PM90 °FPartly sunny.14 mph36%29.89 "HgN/A
1:30 PM90 °FScattered clouds.13 mph36%29.89 "HgN/A
1:00 PM88 °FScattered clouds.17 mph43%29.89 "HgN/A
12:30 PM88 °FScattered clouds.16 mph46%29.89 "HgN/A
12:00 PM88 °FScattered clouds.16 mph46%29.92 "HgN/A
11:30 AM86 °FScattered clouds.18 mph49%29.92 "HgN/A
11:00 AM86 °FScattered clouds.17 mph49%29.92 "HgN/A
10:30 AM86 °FScattered clouds.20 mph55%29.92 "HgN/A
10:00 AM86 °FPassing clouds.16 mph55%29.92 "Hg5 mi
9:00 AM82 °FPassing clouds.12 mph62%29.92 "Hg5 mi
8:30 AM82 °FPassing clouds.10 mph66%29.89 "Hg5 mi
8:00 AM81 °FPassing clouds.8 mph70%29.89 "Hg5 mi
7:30 AM81 °FPassing clouds.6 mph70%29.86 "Hg5 mi
7:00 AM79 °FPassing clouds.5 mph70%29.86 "Hg5 mi
6:30 AM79 °FPassing clouds.5 mph65%29.86 "Hg5 mi
6:00 AM79 °FPassing clouds.6 mph61%29.83 "Hg5 mi
5:00 AM75 °FPassing clouds.7 mph65%29.86 "HgN/A
4:30 AM73 °FPassing clouds.5 mph74%29.83 "HgN/A
4:00 AM73 °FPassing clouds.No wind78%29.83 "HgN/A
3:00 AM77 °FPassing clouds.No wind69%29.83 "HgN/A
2:30 AM79 °FPassing clouds.5 mph65%29.83 "HgN/A
2:00 AM77 °FPassing clouds.No wind69%29.83 "HgN/A
1:00 AM75 °FPassing clouds.No wind78%29.83 "HgN/A
12:30 AM77 °FPassing clouds.No wind74%29.83 "HgN/A
12:00 AM79 °FPassing clouds.No wind70%29.83 "HgN/A
11:30 PM
Sep 22
79 °FPassing clouds.2 mph74%29.83 "HgN/A
11:00 PM79 °FPassing clouds.No wind74%29.86 "Hg5 mi
Weather by CustomWeather, © 2014

See weather overviewHow to use our weather pages